Content
SEND FEEDBACK

Daily
Averages
Monthly
Summary
France

AVIGNON, FRANCE


Home > Europe > France
Elevation: 187 feet     Latitude: 44 00N     Longitude: 004 45E

WEATHER
 
SELECT A DAY
Number of Records: 173,603;   Date Range: 5/17/04 - 11/21/14
 
SHARE

PRINT THIS DATA

[ ← Previous Day ]
WEATHER ALMANAC - JANUARY 18, 2013
[ Next Day → ]
[ °C ]   °F
Weather ElementAverageHighLow
Temperature31.2 °F35.6 °F (2:00 pm)28.4 °F (1:30 am)
Dewpoint20.6 °F28.4 °F (11:30 pm)19.4 °F (12:30 am)
Humidity65.4 %87 % (11:30 pm)52 % (4:30 pm)
Barometer29.65 in29.74 in (12:30 am)29.53 in (10:30 pm)
Wind Speed12.7 mph28.8 mph (12:30 am)
Wind Gust47.2 mph (12:30 am)
Weather ElementAverage
Visibility6.1 mi
Wind DirectionW (270.7 °)

Weather ElementTotal
Precipitation---
Heating Degree Days33 (Base 65)
Averaged from 45 records on January 18, 2013
WEATHER CONDITIONS BREAKOUT
WIND DIRECTION BREAKOUT
WEATHER BY HOUR - JANUARY 18, 2013
[ °C ]   °F
Local TimeTemperatureDewpointHumidityBarometerVisibilityWind DirectionWind SpeedGust SpeedPrecipitationEventsConditions
12:30 AM30.2 °F19.4 °F64 %29.74 in6.2 miNorth (350°)28.8 mph47.2 mph
1:00 AM30.2 °F19.4 °F64 %29.74 in6.2 miNorth (350°)28.8 mph
1:30 AM28.4 °F19.4 °F69 %29.74 in6.2 miNorth (350°)25.3 mph39.1 mph
2:00 AM28.4 °F19.4 °F69 %29.74 in6.2 miNorth (350°)25.3 mph40.3 mph
2:30 AM28.4 °F19.4 °F69 %29.71 in6.2 miNorth (350°)26.5 mph
3:00 AM28.4 °F19.4 °F69 %29.74 in6.2 miNorth (360°)23.0 mph
3:30 AM28.4 °F19.4 °F69 %29.71 in6.2 miNorth (350°)23.0 mph38.0 mph
4:00 AM28.4 °F19.4 °F69 %29.71 in6.2 miNorth (350°)21.9 mph35.7 mph
4:30 AM28.4 °F19.4 °F69 %29.68 in6.2 miNorth (350°)19.6 mph31.1 mph
5:00 AM28.4 °F19.4 °F69 %29.68 in6.2 miNorth (360°)20.7 mph
5:30 AM28.4 °F19.4 °F69 %29.68 in6.2 miNorth (350°)18.4 mph31.1 mph
6:00 AM28.4 °F19.4 °F69 %29.68 in6.2 miNorth (360°)16.1 mph
6:30 AM28.4 °F19.4 °F69 %29.68 in6.2 miNorth (350°)17.3 mph
7:00 AM28.4 °F19.4 °F69 %29.68 in6.2 miNorth (350°)16.1 mph
7:30 AM28.4 °F19.4 °F69 %29.71 in6.2 miNorth (350°)16.1 mph
8:00 AM28.4 °F19.4 °F69 %29.68 in6.2 miNorth (360°)18.4 mph
8:30 AM28.4 °F19.4 °F69 %29.68 in6.2 miNorth (360°)16.1 mph
9:00 AM28.4 °F19.4 °F69 %29.68 in6.2 miNorth (360°)19.6 mph
9:30 AM28.4 °F19.4 °F69 %29.71 in6.2 miNorth (360°)13.8 mph
10:00 AM30.2 °F19.4 °F64 %29.71 in6.2 miNorth (360°)15.0 mph
10:30 AM30.2 °F19.4 °F64 %29.68 in6.2 miNorth (360°)15.0 mph
11:00 AM32.0 °F19.4 °F60 %29.68 in6.2 miNorth (350°)12.7 mph
11:30 AM33.8 °F21.2 °F60 %29.68 in6.2 miNNW (340°)13.8 mph
12:00 PM33.8 °F19.4 °F56 %29.68 in6.2 miNorth (350°)15.0 mph
12:30 PM33.8 °F19.4 °F56 %29.68 in6.2 miNorth (360°)11.5 mph
1:00 PM33.8 °F21.2 °F60 %29.65 in6.2 miNorth (350°)12.7 mph
1:30 PM33.8 °F21.2 °F60 %29.62 in6.2 miNorth (360°)12.7 mph
2:00 PM35.6 °F21.2 °F56 %29.62 in6.2 miNNW (340°)9.2 mph
2:30 PM35.6 °F21.2 °F56 %29.62 in6.2 miNorth (360°)9.2 mph
3:00 PM35.6 °F21.2 °F56 %29.62 in6.2 miNorth (350°)6.9 mph
3:30 PM35.6 °F21.2 °F56 %29.62 in6.2 miNorth (350°)5.8 mph
4:00 PM35.6 °F21.2 °F56 %29.59 in6.2 miNorth (10°)5.8 mph
4:30 PM35.6 °F19.4 °F52 %29.59 in6.2 miNE (40°)4.6 mphMostly Cloudy
5:30 PM33.8 °F21.2 °F60 %29.59 in6.2 miNW (320°)4.6 mphMostly Cloudy
6:00 PM33.8 °F19.4 °F56 %29.59 in6.2 miVariable1.2 mph
6:30 PM32.0 °F19.4 °F60 %29.56 in6.2 miVariable2.3 mphMostly Cloudy
7:00 PM30.2 °F21.2 °F69 %29.56 in6.2 miCalmMostly Cloudy
8:00 PM30.2 °F23.0 °F75 %29.59 in6.2 miNNW (340°)2.3 mphOvercast
8:30 PM32.0 °F21.2 °F64 %29.56 in6.2 miNE (50°)1.2 mph
9:00 PM32.0 °F23.0 °F69 %29.56 in6.2 miEast (90°)1.2 mphOvercast
9:30 PM33.8 °F23.0 °F65 %29.56 in6.2 miVariable2.3 mphSnowLight Snow
10:00 PM32.0 °F23.0 °F69 %29.56 in6.2 miNE (50°)3.5 mphSnowLight Snow
10:30 PM32.0 °F24.8 °F75 %29.53 in5.6 miVariable3.5 mphOvercast
11:00 PM32.0 °F26.6 °F80 %29.53 in4.3 miNNW (330°)3.5 mphRainRain
11:30 PM32.0 °F28.4 °F87 %29.53 in3.7 miVariable2.3 mphRainRain
Hourly data recorded from LFMV, located miles away from Avignon, France







STORIES FROM OUR PARTNERS